Wind_Speed
10 11 11 12 11 9 10 11 11 12 12 11 12 11 11 11 11 12 14 16 16 17 17 16 15 15 17 20 20 22 23 21 19 18 18 20 21 18 16 16 16 16
10 11 11 12 12 10 11 12 12 12 12 12 13 13 12 12 12 12 13 14 16 17 17 16 16 16 17 20 22 22 22 21 19 19 20 21 20 18 17 17 17 18
10 12 11 11 12 12 12 13 13 13 14 14 13 14 14 13 13 14 13 13 14 16 17 16 17 18 17 19 22 23 23 23 21 19 19 20 19 18 18 18 17 18
11 12 11 10 11 12 13 14 13 13 15 15 14 15 16 14 14 14 13 12 13 14 16 17 17 18 17 18 21 23 23 22 21 21 20 19 20 19 18 18 18 18
12 11 11 10 9 10 12 14 14 14 15 15 15 15 16 15 14 14 13 13 13 14 15 17 18 18 17 17 19 22 22 20 20 22 21 20 20 19 17 17 18 18
13 12 11 10 9 9 11 13 14 14 14 16 16 16 16 15 15 15 15 14 14 14 15 17 19 20 20 18 17 18 20 20 21 22 22 20 19 17 16 17 17 17
14 13 12 11 11 9 10 12 13 13 14 16 17 17 16 15 14 14 15 15 15 14 15 17 18 21 23 20 17 18 20 20 19 22 22 21 19 17 17 18 17 17
15 14 13 13 13 11 10 12 12 13 14 14 16 16 15 14 14 13 14 16 16 15 16 16 16 20 22 20 18 19 21 21 20 21 22 20 19 19 18 18 18 17
16 16 15 14 14 13 12 11 12 13 13 14 15 14 14 14 14 14 15 17 16 16 18 18 17 18 19 19 20 20 21 22 21 22 22 21 20 21 20 19 18 18
18 18 17 16 15 14 13 13 13 13 13 14 14 13 14 15 14 13 15 17 18 18 19 19 19 20 20 20 21 21 21 21 21 22 23 23 21 21 21 20 18 18
20 19 18 17 16 15 15 15 15 14 13 13 13 14 15 16 16 14 14 16 18 18 19 19 20 21 21 21 21 20 21 22 21 22 24 24 22 21 21 20 19 19
21 20 18 18 17 16 16 15 14 14 14 13 13 14 16 17 17 16 16 16 17 18 19 19 20 21 21 22 22 21 21 21 21 23 23 22 20 19 20 20 19 19
21 20 19 19 18 17 16 15 14 13 14 13 13 14 15 16 17 17 17 16 17 18 19 19 19 20 20 21 21 21 21 20 20 22 22 20 19 18 19 19 18 20
20 20 19 19 19 18 17 16 15 15 14 13 13 13 14 15 16 17 18 16 16 18 19 19 20 21 21 21 21 21 20 20 20 20 19 19 19 18 18 18 18 20
20 20 20 20 20 19 18 18 18 17 15 13 12 12 13 14 16 17 18 18 17 17 18 19 21 22 23 23 22 21 20 20 21 20 18 18 19 19 17 16 17 19
20 20 21 21 20 20 19 19 19 18 18 17 16 15 15 15 16 17 18 18 19 19 19 20 22 22 24 25 24 23 22 20 21 20 19 19 19 19 16 15 17 18
21 21 22 21 21 21 20 19 19 18 18 18 17 17 18 17 16 17 17 18 20 21 20 21 23 24 24 25 25 25 23 21 21 21 20 21 20 18 16 15 17 17
22 22 22 22 22 22 21 20 19 18 18 18 17 16 17 16 15 16 16 16 19 22 22 23 25 26 25 26 27 28 24 20 19 19 20 21 19 16 15 15 16 18
22 22 22 21 22 22 22 21 20 19 19 18 17 16 15 13 13 14 15 15 16 19 21 22 23 23 23 26 28 30 27 20 17 18 19 19 17 16 15 14 14 17
22 22 22 21 21 21 22 22 21 20 19 18 17 16 15 14 12 12 12 12 13 14 14 15 17 18 18 21 27 31 29 22 16 16 18 18 17 17 16 15 15 16
22 22 22 21 21 20 21 21 21 20 19 18 16 15 15 14 12 11 10 10 10 10 11 11 15 18 19 22 27 29 27 22 18 17 18 19 18 17 16 15 16 16
22 22 22 21 20 20 20 21 20 20 19 17 16 15 14 14 13 13 11 9 7 5 5 7 10 14 19 23 25 25 22 21 20 19 19 21 21 19 17 15 14 15
21 21 20 20 20 20 20 20 20 19 18 17 16 15 14 14 14 15 14 13 10 8 5 2 2 5 11 17 20 19 17 17 18 19 20 20 20 20 20 18 16 16
20 20 19 20 20 19 19 19 19 18 17 16 16 15 14 14 14 15 18 17 15 14 14 12 9 6 4 8 13 14 13 11 14 17 20 19 18 18 19 19 18 17
19 19 19 19 19 19 18 18 18 17 16 16 16 15 14 13 14 17 20 21 20 20 21 19 17 14 10 9 10 12 12 10 11 15 20 21 20 18 16 16 17 17
19 19 19 19 19 19 18 18 17 16 16 17 17 17 16 14 14 16 18 21 22 23 25 25 23 19 15 11 11 9 9 9 10 14 20 21 20 19 16 14 15 15
Wind_Direction
316 302 293 283 271 263 265 262 250 241 236 232 232 232 237 244 243 241 245 248 248 245 243 237 225 211 202 199 200 207 217 222 224 224 224 223 223 221 220 217 216 219
324 312 301 296 291 279 266 262 257 251 247 242 236 229 232 239 239 236 238 243 247 247 246 240 232 221 207 197 194 201 211 214 216 220 221 221 220 218 218 215 213 216
333 325 314 304 298 290 275 265 260 257 254 250 239 229 231 235 235 237 237 238 241 245 245 243 238 229 217 205 202 205 207 206 209 215 218 219 218 217 216 216 215 215
337 333 324 310 296 289 285 277 268 261 257 253 244 235 234 232 230 233 235 234 234 237 240 240 238 233 225 215 210 210 211 210 210 212 214 216 217 216 214 215 217 215
331 328 324 316 300 283 278 276 272 266 261 258 251 246 240 230 225 228 229 229 228 230 233 234 234 232 226 217 211 210 211 210 210 211 214 217 217 216 213 214 215 210
328 321 315 311 307 293 280 275 273 270 268 266 262 256 246 233 225 225 226 226 224 226 229 231 231 229 225 220 214 212 210 208 207 209 213 218 218 214 210 212 212 207
329 321 314 308 306 304 295 286 279 275 275 275 270 262 251 240 231 227 228 229 227 226 229 231 229 226 225 221 217 213 212 209 207 208 212 216 216 211 208 208 209 210
331 325 321 315 311 308 303 297 289 281 276 275 271 264 254 248 242 237 234 232 231 229 228 227 225 223 222 219 214 212 212 211 209 209 211 212 211 207 205 204 205 209
335 332 328 324 318 312 306 301 293 285 279 274 272 269 261 255 252 249 244 238 234 232 229 226 223 219 216 215 213 210 208 207 207 208 209 209 208 206 203 203 203 203
338 335 333 329 323 314 306 299 293 287 281 277 274 270 265 260 256 252 248 242 238 237 234 229 223 218 214 212 212 210 207 205 206 208 209 208 207 204 201 202 203 201
340 338 334 330 325 319 310 301 295 287 280 276 271 266 263 261 257 248 242 242 241 239 238 233 225 221 219 214 211 210 209 208 208 209 210 209 207 203 198 199 203 201
343 340 336 332 328 323 317 308 300 291 284 278 271 266 264 262 261 253 243 242 243 241 241 238 230 225 222 217 213 210 209 210 210 209 210 209 204 200 196 198 202 200
344 341 337 336 332 328 323 315 307 298 291 286 279 274 270 265 264 259 249 243 243 241 240 239 234 226 222 219 214 209 207 208 208 209 209 205 201 198 195 196 201 200
345 343 340 338 336 335 332 327 321 313 304 294 286 282 277 270 264 259 252 246 243 242 241 240 235 228 223 221 216 211 208 205 204 205 202 197 197 196 193 196 200 200
347 346 345 343 343 342 342 339 336 333 328 318 306 297 290 280 269 261 255 250 246 244 243 241 237 231 226 224 217 209 205 203 201 199 194 191 192 191 190 195 198 200
350 349 349 349 349 348 347 345 343 342 339 334 327 319 312 302 289 275 263 256 252 248 244 242 238 232 227 223 215 205 200 198 196 193 189 184 184 186 186 190 195 199
354 353 353 354 354 352 351 350 348 346 341 337 334 328 323 318 308 293 278 266 258 253 248 244 240 234 227 222 215 207 200 194 191 189 185 182 182 183 183 186 193 194
358 357 357 358 359 358 356 354 352 350 347 343 340 337 333 328 317 306 294 278 267 260 254 250 246 240 230 222 214 205 197 191 187 182 179 181 182 179 178 184 191 190
359 0 360 360 1 2 0 359 358 356 353 347 343 342 343 339 329 316 302 287 277 267 260 257 254 246 233 225 217 205 196 191 184 178 178 180 179 177 178 181 185 183
360 2 3 2 3 3 4 4 2 359 355 352 349 347 348 349 347 338 320 302 286 274 270 265 256 248 239 230 221 210 200 192 182 178 179 178 176 176 176 175 175 172
1 2 4 6 6 6 7 7 5 2 359 356 354 354 355 356 357 358 351 334 310 291 281 268 254 248 243 234 224 214 204 193 183 178 176 172 172 171 167 169 173 168
3 3 5 7 8 9 11 10 8 7 3 360 358 1 5 8 10 11 9 2 353 327 281 267 262 251 239 230 222 214 203 191 182 174 168 165 165 164 163 164 165 164
6 6 7 9 10 12 12 12 11 10 8 6 6 8 13 20 24 24 23 24 26 34 50 35 328 257 232 223 214 205 193 189 188 179 169 163 159 161 168 170 164 162
9 10 10 11 13 14 13 13 14 13 12 11 12 14 18 26 34 38 40 39 35 41 54 60 60 75 148 181 185 182 172 179 195 182 166 161 157 156 166 170 166 163
12 13 15 16 17 18 16 16 15 14 15 16 15 15 14 21 34 41 45 44 39 45 56 58 59 66 81 114 140 157 163 178 196 170 150 151 154 150 150 156 160 163
17 18 21 22 23 24 23 22 18 16 20 23 22 18 15 18 26 36 45 46 41 43 51 55 56 58 60 81 107 127 149 166 172 153 141 141 143 139 135 139 147 157
Height
806 805 803 802 801 802 802 801 801 801 800 800 799 799 799 799 799 799 799 799 800 801 802 805 808 810 812 814 815 816 816 817 818 819 819 819 819 820 821 822 823 823
806 805 804 802 801 801 801 800 800 800 800 799 799 798 798 798 799 799 799 799 799 799 800 802 805 807 808 810 812 813 814 815 817 817 817 817 818 819 820 820 821 822
806 805 804 803 801 800 800 799 799 799 799 798 798 797 796 796 797 798 798 798 798 798 798 799 802 803 805 806 808 809 810 811 813 814 815 815 816 817 818 819 820 820
806 805 804 803 801 800 799 798 797 797 796 796 796 795 795 794 795 796 797 797 797 797 797 798 799 801 802 803 805 806 806 807 809 810 811 812 814 814 815 817 818 819
806 805 804 802 801 799 798 796 795 795 794 794 794 793 793 793 793 795 795 795 795 796 796 796 798 799 799 800 801 803 804 804 805 806 808 810 811 812 813 815 816 817
805 804 803 802 800 798 796 795 794 793 793 793 793 792 792 791 791 792 793 793 793 794 795 795 796 797 797 797 798 799 800 801 802 803 805 808 809 810 811 813 814 814
805 803 802 801 799 797 795 793 792 792 792 792 792 792 791 790 790 791 791 792 792 792 793 793 794 794 795 795 795 796 797 799 800 801 803 805 807 807 808 810 812 812
805 803 801 799 797 795 794 792 791 790 790 791 791 790 790 788 789 789 790 790 790 791 791 791 792 792 793 793 793 794 795 796 798 799 800 802 803 804 806 808 809 810
805 803 801 798 796 794 793 792 791 790 789 789 789 789 788 787 787 788 788 788 788 788 788 789 789 790 791 791 791 792 792 793 795 796 797 799 800 801 803 805 806 807
804 802 800 798 796 794 793 791 790 789 788 788 787 787 787 786 786 786 787 787 786 786 786 786 787 787 788 789 789 789 790 791 792 793 794 796 798 799 800 802 803 804
803 802 800 798 796 794 792 791 789 788 787 786 786 785 785 784 783 784 784 784 784 784 784 784 784 784 785 786 787 787 788 789 790 790 791 793 795 797 797 798 800 801
804 802 799 798 796 794 792 790 788 787 786 785 784 783 783 781 781 781 781 782 782 781 781 781 781 781 783 783 784 785 786 787 788 788 789 791 793 794 794 796 797 798
804 802 800 798 796 793 792 790 788 786 785 784 783 782 781 780 779 778 778 778 779 779 779 779 779 779 780 781 782 783 783 784 785 785 787 789 791 791 792 794 795 796
805 803 800 798 795 793 791 789 787 785 783 782 781 780 779 778 777 776 775 775 776 776 776 776 777 778 778 779 780 780 781 781 782 783 784 786 788 789 790 792 793 794
806 803 800 798 795 793 790 788 786 783 782 781 779 778 778 776 775 774 773 773 773 773 773 773 774 775 775 776 777 777 777 778 779 780 782 783 785 787 788 790 791 792
806 803 801 798 795 793 790 788 786 783 781 779 778 777 776 775 774 773 772 771 771 770 770 770 771 771 772 773 773 773 774 775 777 778 779 780 782 784 786 787 789 790
807 804 801 798 795 793 791 789 787 784 781 779 777 776 774 773 772 771 770 770 769 768 768 767 767 768 768 769 769 770 771 772 774 775 776 778 780 782 784 785 786 788
807 804 801 799 796 794 792 790 788 785 783 780 777 776 774 772 771 770 769 768 767 766 765 765 765 765 765 766 766 767 768 771 772 773 774 775 777 779 781 782 784 786
809 805 803 800 797 795 793 791 789 786 784 781 778 776 774 772 770 768 767 766 765 765 764 763 763 763 763 765 766 766 767 769 770 770 772 774 775 776 778 780 782 784
810 807 804 801 799 796 794 792 790 787 785 782 779 777 774 772 770 769 767 766 765 764 763 762 761 761 762 764 766 765 764 766 768 769 770 772 773 774 776 779 781 783
811 809 806 803 800 798 795 794 791 789 786 784 781 779 776 773 772 770 768 767 765 764 763 761 760 760 761 762 763 763 763 764 767 768 769 770 772 774 776 779 781 782
813 811 808 805 802 800 797 795 793 791 789 786 784 781 778 775 773 771 770 768 766 764 762 761 759 759 759 759 760 761 763 765 766 766 768 768 770 772 775 778 781 782
816 813 810 808 805 802 800 798 796 794 792 789 787 784 781 778 775 773 772 770 767 765 763 761 759 757 757 757 758 760 762 764 765 766 766 766 768 770 773 776 779 781
817 815 813 810 808 805 803 801 799 797 795 793 791 788 786 782 779 777 774 772 770 768 765 762 760 758 758 757 757 759 761 764 767 767 765 765 768 770 773 775 778 779
819 818 815 813 811 808 806 804 802 800 798 796 794 792 790 787 784 780 777 775 773 770 767 765 762 760 759 758 758 760 762 765 769 768 764 765 768 771 773 776 777 779
822 820 818 815 814 811 809 808 805 803 801 799 797 795 794 791 788 784 781 777 776 773 770 767 763 762 762 761 761 762 764 768 771 769 764 766 769 771 773 776 777 779